When you browse on this site, cookies collect data to enhance your experience and personalize the content and advertising you see.
Visit our Privacy Policy to learn more. By continuing to use the site, you agree to this use of cookies and data.
  • In Hungary
  • List of Countries
  • For 7 days
  • Water Temperature
  • Weather Map
  • News
  • Weather Widgets
  • user-avatar
    Login

    Hourly Weather Khlypnivka

    Today, 3 April, Friday

    Time Temperature Precipitation Wind Pressure Humidity
    00:00 +3°C° 0 mm 3 mps 746 mmHg 52%
    01:00 +3°C° 0 mm 3 mps 746 mmHg 52%
    02:00 +4°C° 0 mm 2 mps 746 mmHg 53%
    03:00 +2°C° 0 mm 3 mps 746 mmHg 55%
    04:00 +2°C° 0 mm 3 mps 746 mmHg 56%
    05:00 +1°C° 0 mm 3 mps 746 mmHg 57%
    06:00 +3°C° 0 mm 3 mps 746 mmHg 53%
    07:00 +4°C° 0 mm 3 mps 746 mmHg 48%
    08:00 +6°C° 0 mm 4 mps 747 mmHg 43%
    09:00 +7°C° 0 mm 4 mps 746 mmHg 38%
    10:00 +8°C° 0 mm 5 mps 746 mmHg 34%
    11:00 +10°C° 0 mm 6 mps 746 mmHg 30%
    12:00 +10°C° 0 mm 6 mps 746 mmHg 30%
    13:00 +11°C° 0 mm 6 mps 746 mmHg 29%
    14:00 +13°C° 0 mm 6 mps 746 mmHg 29%
    15:00 +13°C° 0 mm 5 mps 745 mmHg 31%
    16:00 +13°C° 0 mm 5 mps 745 mmHg 33%
    17:00 +12°C° 0 mm 5 mps 745 mmHg 35%
    18:00 +11°C° 0 mm 4 mps 745 mmHg 40%
    19:00 +10°C° 0 mm 4 mps 746 mmHg 45%
    20:00 +8°C° 0 mm 3 mps 746 mmHg 51%
    21:00 +8°C° 0 mm 3 mps 747 mmHg 53%
    22:00 +7°C° 0 mm 3 mps 747 mmHg 55%
    23:00 +5°C° 0 mm 3 mps 748 mmHg 57%

    Tomorrow, 4 April, Saturday

    Time Temperature Precipitation Wind Pressure Humidity
    00:00 +5°C° 0 mm 3 mps 748 mmHg 59%
    01:00 +5°C° 0 mm 3 mps 749 mmHg 62%
    02:00 +4°C° 0 mm 3 mps 749 mmHg 64%
    03:00 +5°C° 0 mm 2 mps 749 mmHg 69%
    04:00 +5°C° 0 mm 2 mps 750 mmHg 75%
    05:00 +4°C° 0 mm 2 mps 750 mmHg 80%
    06:00 +4°C° 0 mm 3 mps 751 mmHg 76%
    07:00 +5°C° 0 mm 3 mps 751 mmHg 71%
    08:00 +8°C° 0 mm 3 mps 752 mmHg 67%
    09:00 +9°C° 0 mm 3 mps 752 mmHg 58%
    10:00 +10°C° 0 mm 3 mps 753 mmHg 49%
    11:00 +11°C° 0 mm 3 mps 753 mmHg 40%
    12:00 +12°C° 0 mm 3 mps 753 mmHg 37%
    13:00 +12°C° 0 mm 4 mps 753 mmHg 34%
    14:00 +13°C° 0 mm 4 mps 754 mmHg 31%
    15:00 +12°C° 0 mm 4 mps 754 mmHg 31%
    16:00 +12°C° 0 mm 4 mps 754 mmHg 31%
    17:00 +11°C° 0 mm 4 mps 754 mmHg 31%
    18:00 +10°C° 0 mm 4 mps 754 mmHg 35%
    19:00 +9°C° 0 mm 3 mps 755 mmHg 38%
    20:00 +7°C° 0 mm 3 mps 756 mmHg 41%
    21:00 +7°C° 0 mm 3 mps 756 mmHg 42%
    22:00 +5°C° 0 mm 3 mps 757 mmHg 42%
    23:00 +5°C° 0 mm 2 mps 757 mmHg 43%

    Day after tomorrow, 5 April, Sunday

    Time Temperature Precipitation Wind Pressure Humidity
    00:00 +5°C° 0 mm 2 mps 758 mmHg 44%
    01:00 +4°C° 0 mm 2 mps 758 mmHg 46%
    02:00 +3°C° 0 mm 3 mps 758 mmHg 48%
    03:00 +2°C° 0 mm 3 mps 759 mmHg 50%
    04:00 +2°C° 0 mm 3 mps 759 mmHg 52%
    05:00 +1°C° 0 mm 3 mps 759 mmHg 54%
    06:00 +3°C° 0 mm 3 mps 760 mmHg 50%
    07:00 +4°C° 0 mm 4 mps 760 mmHg 46%
    08:00 +5°C° 0 mm 4 mps 760 mmHg 42%
    09:00 +6°C° 0 mm 5 mps 761 mmHg 39%
    10:00 +8°C° 0 mm 6 mps 761 mmHg 37%
    11:00 +9°C° 0 mm 6 mps 761 mmHg 34%
    12:00 +9°C° 0 mm 6 mps 761 mmHg 33%
    13:00 +9°C° 0 mm 6 mps 761 mmHg 33%
    14:00 +10°C° 0 mm 6 mps 761 mmHg 32%
    15:00 +9°C° 0 mm 6 mps 761 mmHg 33%
    16:00 +9°C° 0 mm 6 mps 761 mmHg 33%
    17:00 +9°C° 0 mm 6 mps 761 mmHg 34%
    18:00 +7°C° 0 mm 5 mps 762 mmHg 39%
    19:00 +6°C° 0 mm 4 mps 762 mmHg 44%
    20:00 +4°C° 0 mm 3 mps 762 mmHg 50%
    21:00 +4°C° 0 mm 3 mps 763 mmHg 51%
    22:00 +3°C° 0 mm 3 mps 763 mmHg 53%
    23:00 +3°C° 0 mm 3 mps 764 mmHg 54%

    6 April, Monday

    Time Temperature Precipitation Wind Pressure Humidity
    00:00 +2°C° 0 mm 3 mps 764 mmHg 55%
    01:00 +3°C° 0 mm 2 mps 764 mmHg 55%
    02:00 +2°C° 0 mm 2 mps 764 mmHg 55%
    03:00 +2°C° 0 mm 2 mps 764 mmHg 56%
    04:00 +1°C° 0 mm 2 mps 764 mmHg 57%
    05:00 +1°C° 0 mm 2 mps 765 mmHg 57%
    06:00 +3°C° 0 mm 2 mps 765 mmHg 53%
    07:00 +4°C° 0 mm 2 mps 765 mmHg 48%
    08:00 +6°C° 0 mm 2 mps 766 mmHg 44%
    09:00 +7°C° 0 mm 2 mps 766 mmHg 40%
    10:00 +9°C° 0 mm 2 mps 766 mmHg 36%
    11:00 +10°C° 0 mm 2 mps 766 mmHg 33%
    12:00 +12°C° 0 mm 2 mps 765 mmHg 31%
    13:00 +13°C° 0 mm 2 mps 765 mmHg 29%
    14:00 +13°C° 0 mm 2 mps 765 mmHg 28%
    15:00 +13°C° 0 mm 2 mps 765 mmHg 28%
    16:00 +13°C° 0 mm 2 mps 764 mmHg 29%
    17:00 +13°C° 0 mm 2 mps 764 mmHg 30%
    18:00 +12°C° 0 mm 2 mps 764 mmHg 35%
    19:00 +9°C° 0 mm 2 mps 764 mmHg 40%
    20:00 +8°C° 0 mm 2 mps 764 mmHg 44%
    21:00 +7°C° 0 mm 2 mps 764 mmHg 46%
    22:00 +8°C° 0 mm 1 mps 765 mmHg 47%
    23:00 +7°C° 0 mm 1 mps 765 mmHg 48%

    7 April, Tuesday

    Time Temperature Precipitation Wind Pressure Humidity
    00:00 +7°C° 0 mm 1 mps 765 mmHg 50%
    01:00 +6°C° 0 mm 1 mps 764 mmHg 52%
    02:00 +6°C° 0 mm 1 mps 764 mmHg 53%
    03:00 +6°C° 0 mm 1 mps 764 mmHg 55%
    04:00 +5°C° 0 mm 1 mps 764 mmHg 57%
    05:00 +5°C° 0 mm 1 mps 765 mmHg 58%
    06:00 +7°C° 0 mm 1 mps 765 mmHg 56%
    07:00 +7°C° 0 mm 2 mps 765 mmHg 53%
    08:00 +9°C° 0 mm 2 mps 765 mmHg 50%
    09:00 +10°C° 0 mm 2 mps 764 mmHg 47%
    10:00 +12°C° 0 mm 2 mps 764 mmHg 43%
    11:00 +13°C° 0 mm 3 mps 764 mmHg 40%
    12:00 +14°C° 0 mm 2 mps 764 mmHg 38%
    13:00 +15°C° 0 mm 2 mps 763 mmHg 37%
    14:00 +15°C° 0 mm 2 mps 763 mmHg 35%
    15:00 +15°C° 0 mm 2 mps 763 mmHg 36%
    16:00 +14°C° 0 mm 3 mps 762 mmHg 37%
    17:00 +14°C° 0 mm 3 mps 762 mmHg 38%
    18:00 +14°C° 0 mm 2 mps 762 mmHg 42%
    19:00 +12°C° 0 mm 2 mps 762 mmHg 47%
    20:00 +10°C° 0 mm 2 mps 761 mmHg 51%
    21:00 +10°C° 0 mm 1 mps 761 mmHg 52%
    22:00 +10°C° 0 mm 1 mps 761 mmHg 54%
    23:00 +8°C° 0 mm 0 mps 761 mmHg 55%

    8 April, Wednesday

    Time Temperature Precipitation Wind Pressure Humidity
    00:00 +9°C° 0 mm 1 mps 761 mmHg 56%
    01:00 +8°C° 0 mm 1 mps 761 mmHg 57%
    02:00 +8°C° 0 mm 1 mps 761 mmHg 58%
    03:00 +8°C° 0 mm 1 mps 761 mmHg 59%
    04:00 +7°C° 0 mm 1 mps 760 mmHg 60%
    05:00 +7°C° 0 mm 1 mps 760 mmHg 61%
    06:00 +7°C° 0 mm 2 mps 760 mmHg 57%
    07:00 +9°C° 0 mm 2 mps 760 mmHg 53%
    08:00 +12°C° 0 mm 2 mps 760 mmHg 49%
    09:00 +12°C° 0 mm 3 mps 759 mmHg 43%
    10:00 +14°C° 0 mm 3 mps 759 mmHg 37%
    11:00 +17°C° 0 mm 4 mps 759 mmHg 30%
    12:00 +17°C° 0 mm 4 mps 758 mmHg 29%
    13:00 +18°C° 0 mm 4 mps 758 mmHg 28%
    14:00 +19°C° 0 mm 4 mps 757 mmHg 27%
    15:00 +19°C° 0 mm 4 mps 757 mmHg 31%
    16:00 +18°C° 0 mm 4 mps 756 mmHg 34%
    17:00 +17°C° 0 mm 5 mps 756 mmHg 37%
    18:00 +15°C° 0 mm 4 mps 756 mmHg 43%
    19:00 +14°C° 0 mm 3 mps 756 mmHg 50%
    20:00 +12°C° 0 mm 3 mps 755 mmHg 56%
    21:00 +12°C° 0 mm 3 mps 756 mmHg 62%
    22:00 +11°C° 0 mm 3 mps 756 mmHg 67%
    23:00 +11°C° 0 mm 3 mps 756 mmHg 73%
    Show more